"Pseudo-MPEC" for P11JWp3

Created 2023 Sep 20 21:22:24 UT using Find_Orb

Click here for an explanation of pseudo-MPECs

 
 Astrometry: 
     P11JWp3* C2023 09 18_vhUjoP;r^!5**!3v7\g8oVAAstrometryKRredacted;pdYl,h\F51
     P11JWp3  C2023 09 18.]fI/$$D/.%0vUHXBpkNkb'9.3'Ev?eENjJsy2clickRc.-e@))jF51
     P11JWp3  C2023 09 18tW6j^xqQ`here_Y_[RKZofor*Snq+1%8wujo^`vX1MsJ`2_l]@s,F51
     P11JWp3 KC2023 09 19.15657622 41 20.440+17 09 01.26   ~9J4M 21.71GVNEOCPV06
     P11JWp3 KC2023 09 19.16054822 41 19.781+17 09 09.83   ~9J4M 21.57GVNEOCPV06
     P11JWp3 KC2023 09 19.16451822 41 19.108+17 09 18.50   ~9J4M 21.64GVNEOCPV06
     P11JWp3 KC2023 09 19.16849222 41 18.445+17 09 27.14   ~9J4M 21.75GVNEOCPV06
     P11JWp3 1C2023 09 19.91291 22 39 22.06 +17 35 34.6    ~9K97 20.9 VXNEOCP033
     P11JWp3 1C2023 09 19.91649 22 39 21.47 +17 35 42.3    ~9K97 21.0 VXNEOCP033
     P11JWp3 KC2023 09 20$u2fU$cUiyI'ZcW8O_eSyx9l53?B7EvgWbB6%Qjo*mPdWbW`GB9tH21
     P11JWp3 KC2023 09 20Rl0?1,11(xhEtXJ%Hs/JtMfQ3gMLgHY42xyc0F;yE51p:ZiJPmxWH21
     P11JWp3 KC2023 09 20Y)jFVphX)j\!.E2/aeTPvexplanation$k0no:;GqOP;O`f=?os/H21

Station data:
(033) Karl Schwarzschild Observatory, Tautenburg  (N50.980137 E11.711240)
   Germany.  Observer B. Stecklum. 1.34-m f/3 Schmidt + CCD.
(F51) Pan-STARRS 1, Haleakala  (N20.707234 W156.255910)  US/Hawaii.
   Observers J. Bulger, T. Lowe, A. Schultz, M. Willman. Measurers K.
   Chambers, S. Chastel, T. de Boer, L. Denneau, J. Fairlamb, H. Flewelling,
   M. Huber, C.-C. Lin, E. Magnier, Y. Ramanjooloo, R. Wainscoat, R. Weryk.
   1.8-m Ritchey-Chrétien + CCD.
(H21) Astronomical Research Observatory, Westfield  (N39.483054 W87.968270)
   US/Illinois.  Observer R. Holmes. Measurers S. Foglia, L. Buzzi, T.
   Linder, R. Holmes. 0.76-m f/3.0 astrograph + CCD0.81-m f/4.0 astrograph +
   CCD0.61-m f/4.5 astrograph + CCD0.40-m f/5.32 astrograph + CCD.
(V06) Catalina Sky Survey-Kuiper  (N32.416844 W110.732550)  US/Arizona.
   Observers T. A. Pruyne, B. M. Africano, E. J. Christensen, G. A. Farneth,
   D. C. Fuls, A. R. Gibbs, A. D. Grauer, H. Gröller, J. A. Johnson, R. A.
   Kowalski, S. M. Larson, G. J. Leonard, D. Rankin, R. L. Seaman, F. C.
   Shelly, K. W. Wierzchoś. 1.55-m reflector + CCD.

Orbital elements:  P11JWp3
   Perihelion 2023 Nov 30.71177 +/- 0.0987 TT = 17:04:56 (JD 2460279.21177)
Epoch 2023 Sep 20.0 TT = JDT 2460207.5   Earth MOID: 0.1907   Ma: 0.0408
M 314.18820470 +/- 0.38             (J2000 ecliptic)             AutoNEOCP
n   0.63883230 +/- 0.00573          Peri.   88.23788 +/- 0.29
a   1.33519532 +/- 0.00798          Node   330.30713 +/- 0.10
e   0.1796792 +/- 0.00364           Incl.    9.57020 +/- 0.18
P   1.54/563.52d           H 23.76  G  0.15   U  9.3
q 1.09528841 +/- 0.00224    Q 1.57510222 +/- 0.0142
From 12 observations 2023 Sept. 18-20 (44.7 hr); mean residual 0".15
Residuals in arcseconds: 
230918 F51  .07+  .05-    230919 V06  .21+  .05+    230919 033  .06+  .24+    
230918 F51  .14-  .01+    230919 V06  .09+  .11+    230920 H21  .10+  .04+    
230918 F51  .03+  .00     230919 V06  .15+  .13+    230920 H21  .03+  .24-    
230919 V06  .13+  .11+    230919 033  .02-  .10+    230920 H21  .39-  .30-    

Ephemerides (geocentric):
Date (UTC) HH   RA             Dec           delta  r     elong  mag " sig PA
---- --------  ------------   ------------  ------ ------ -----  --- --------
2023 09 20 21  22 36 53.683   +18 09 32.75  .20622 1.1926 153.6 21.8 .334  55
2023 09 20 22  22 36 47.273   +18 10 59.37  .20619 1.1925 153.6 21.8 .348  59
2023 09 20 23  22 36 40.863   +18 12 25.93  .20617 1.1924 153.6 21.8 .364  62
2023 09 21 00  22 36 34.455   +18 13 52.44  .20614 1.1923 153.5 21.8 .381  66
2023 09 21 01  22 36 28.049   +18 15 18.90  .20612 1.1922 153.5 21.8 .400  69
2023 09 21 02  22 36 21.644   +18 16 45.30  .20609 1.1921 153.4 21.8 .420  72
2023 09 21 03  22 36 15.240   +18 18 11.64  .20607 1.1920 153.4 21.8 .442  74
2023 09 21 04  22 36 08.838   +18 19 37.93  .20604 1.1919 153.3 21.8 .465  77
2023 09 21 05  22 36 02.438   +18 21 04.16  .20602 1.1918 153.3 21.8 .489  79
2023 09 21 06  22 35 56.039   +18 22 30.34  .20600 1.1917 153.2 21.8 .514  81
2023 09 21 07  22 35 49.642   +18 23 56.46  .20597 1.1916 153.2 21.8 .540  83
2023 09 21 08  22 35 43.246   +18 25 22.52  .20595 1.1915 153.1 21.8 .568  85
2023 09 21 09  22 35 36.852   +18 26 48.53  .20592 1.1914 153.1 21.8 .596  87
2023 09 21 10  22 35 30.459   +18 28 14.48  .20590 1.1913 153.0 21.8 .626  89
2023 09 21 11  22 35 24.069   +18 29 40.37  .20588 1.1912 153.0 21.8 .656  90
2023 09 21 12  22 35 17.680   +18 31 06.20  .20586 1.1911 152.9 21.8 .688  92
2023 09 21 13  22 35 11.292   +18 32 31.98  .20583 1.1910 152.9 21.8 .720  93
2023 09 21 14  22 35 04.907   +18 33 57.70  .20581 1.1909 152.8 21.8 .754  94
2023 09 21 15  22 34 58.523   +18 35 23.36  .20579 1.1908 152.8 21.8 .788  95
2023 09 21 16  22 34 52.141   +18 36 48.96  .20577 1.1907 152.7 21.8 .823  96
2023 09 21 17  22 34 45.761   +18 38 14.51  .20574 1.1906 152.7 21.8 .859  97
2023 09 21 18  22 34 39.383   +18 39 40.00  .20572 1.1905 152.6 21.8 .895  98
2023 09 21 19  22 34 33.007   +18 41 05.43  .20570 1.1904 152.6 21.8 .933  99
2023 09 21 20  22 34 26.632   +18 42 30.80  .20568 1.1903 152.5 21.8 .971 100
2023 09 21 21  22 34 20.260   +18 43 56.11  .20566 1.1902 152.5 21.8 1.01 101
2023 09 21 22  22 34 13.889   +18 45 21.36  .20564 1.1901 152.4 21.8 1.05 102
2023 09 21 23  22 34 07.521   +18 46 46.56  .20562 1.1900 152.4 21.8 1.09 102
2023 09 22 00  22 34 01.154   +18 48 11.69  .20560 1.1899 152.3 21.8 1.13 103
2023 09 22 01  22 33 54.790   +18 49 36.77  .20558 1.1898 152.3 21.8 1.17 104
2023 09 22 02  22 33 48.428   +18 51 01.79  .20556 1.1897 152.2 21.8 1.22 104
2023 09 22 03  22 33 42.068   +18 52 26.74  .20554 1.1896 152.2 21.8 1.26 105
2023 09 22 04  22 33 35.710   +18 53 51.64  .20552 1.1895 152.1 21.8 1.31 105
2023 09 22 05  22 33 29.354   +18 55 16.48  .20550 1.1894 152.1 21.8 1.35 106
2023 09 22 06  22 33 23.000   +18 56 41.26  .20548 1.1893 152.0 21.8 1.40 106
2023 09 22 07  22 33 16.649   +18 58 05.98  .20546 1.1892 152.0 21.8 1.44 107
2023 09 22 08  22 33 10.299   +18 59 30.64  .20544 1.1891 151.9 21.8 1.49 107
2023 09 22 09  22 33 03.952   +19 00 55.24  .20542 1.1890 151.9 21.8 1.54 108
2023 09 22 10  22 32 57.608   +19 02 19.77  .20540 1.1889 151.8 21.8 1.59 108
2023 09 22 11  22 32 51.265   +19 03 44.25  .20538 1.1888 151.8 21.8 1.64 109
2023 09 22 12  22 32 44.925   +19 05 08.67  .20537 1.1887 151.7 21.8 1.69 109
2023 09 22 13  22 32 38.588   +19 06 33.02  .20535 1.1886 151.7 21.8 1.74 109
2023 09 22 14  22 32 32.253   +19 07 57.32  .20533 1.1885 151.6 21.8 1.79 110
2023 09 22 15  22 32 25.920   +19 09 21.55  .20531 1.1884 151.6 21.8 1.84 110
2023 09 22 16  22 32 19.589   +19 10 45.72  .20529 1.1883 151.5 21.8 1.90 110
2023 09 22 17  22 32 13.261   +19 12 09.83  .20528 1.1882 151.5 21.8 1.95 111
2023 09 22 18  22 32 06.936   +19 13 33.88  .20526 1.1881 151.5 21.8 2.01 111
2023 09 22 19  22 32 00.613   +19 14 57.87  .20524 1.1880 151.4 21.8 2.06 111
2023 09 22 20  22 31 54.293   +19 16 21.80  .20523 1.1879 151.4 21.8 2.12 112